Weather History for Mayfld Grav Cnty AP, Mayfield, KY

Change the Weather History Date:

Thursday, January 2, 2014

  Actual Average (KPAH) Record (KPAH)
Temperature  
Mean Temperature 29 °F 35 °F  
Max Temperature 41 °F 43 °F 70 °F (2000)
Min Temperature 17 °F 26 °F 5 °F (1979)
Degree Days  
Heating Degree Days 36 30  
Month to date heating degree days 60  
Since 1 July heating degree days 1691  
Cooling Degree Days 0 0  
Month to date cooling degree days 0  
Year to date cooling degree days 0  
Moisture  
Dew Point 22 °F    
Average Humidity 78    
Maximum Humidity 100    
Minimum Humidity 59    
Precipitation  
Precipitation 0.00 in 0.12 in 2.10 in (2000)
Month to date precipitation 0.24  
Year to date precipitation 0.24  
Snow  
Snow 0.00 in 0.10 in 1.10 in (1996)
Month to date snowfall 0.2  
Since 1 July snowfall 2.5  
Snow Depth -    
Sea Level Pressure  
Sea Level Pressure 30.17 in    
Wind  
Wind Speed 10 mph (NNW)    
Max Wind Speed 23 mph    
Max Gust Speed 31 mph    
Visibility 9 miles    
Events Rain , Snow    
T = Trace of Precipitation, MM = Missing Value Source: NWS Daily Summary

Daily Weather History Graph

Daily Weather History Graph

Search for Another Location

Airport:

Trip Planner

Search our weather history database for the weather conditions in past years. The results will help you decide how hot, cold, wet, or windy it might be!

Date:

Astronomy

Jan. 02, 2014 Rise Set
Actual Time 7:07 AM CST 4:49 PM CST
Civil Twilight 6:38 AM CST 5:18 PM CST
Nautical Twilight 6:06 AM CST 5:50 PM CST
Astronomical Twilight 5:34 AM CST 6:22 PM CST
Moon 7:51 AM CST (1/2) 6:43 PM CST (1/2)
Length of Visible Light 10h 40m
Length of Day
9h 42m
Waxing Crescent, 3% of the Moon is Illuminated
Jan 2
Waxing Crescent
Jan 7
First Quarter
Jan 15
Full
Jan 23
Last Quarter
Jan 30
New

Hourly Weather History & Observations

Time (CST) Temp. Windchill Dew Point Humidity Pressure Visibility Wind Dir Wind Speed Gust Speed Precip Events Conditions
12:15 AM 41.0 °F - 37.4 °F 87% 29.96 in 10.0 mi Calm Calm - N/A   Overcast
12:35 AM 41.0 °F - 37.4 °F 87% 29.96 in 10.0 mi Calm Calm - N/A   Overcast
12:55 AM 41.0 °F - 39.2 °F 93% 29.95 in 10.0 mi Calm Calm - N/A   Overcast
1:15 AM 41.0 °F - 39.2 °F 93% 29.94 in 10.0 mi Calm Calm - N/A   Overcast
1:35 AM 41.0 °F - 39.2 °F 93% 29.94 in 10.0 mi Calm Calm - N/A   Overcast
1:55 AM 41.0 °F - 39.2 °F 93% 29.95 in 10.0 mi Calm Calm - N/A   Overcast
2:15 AM 41.0 °F 39.0 °F 37.4 °F 87% 29.95 in 10.0 mi WSW 3.5 mph - N/A   Overcast
2:35 AM 41.0 °F 39.0 °F 37.4 °F 87% 29.94 in 7.0 mi West 3.5 mph - N/A   Light Drizzle
2:55 AM 41.0 °F 39.0 °F 39.2 °F 93% 29.93 in 7.0 mi West 3.5 mph - N/A   Overcast
3:15 AM 41.0 °F - 39.2 °F 93% 29.92 in 10.0 mi Calm Calm - N/A   Overcast
3:35 AM 41.0 °F 39.0 °F 39.2 °F 93% 29.92 in 10.0 mi West 3.5 mph - N/A   Overcast
3:55 AM 41.0 °F 35.8 °F 39.2 °F 93% 29.92 in 10.0 mi WNW 8.1 mph - N/A   Overcast
4:15 AM 41.0 °F 33.9 °F 39.2 °F 93% 29.91 in 7.0 mi NW 12.7 mph - N/A   Overcast
4:35 AM 37.4 °F 28.5 °F 35.6 °F 93% 29.92 in 10.0 mi NNW 15.0 mph 18.4 mph N/A   Overcast
4:55 AM 37.4 °F 29.3 °F 35.6 °F 93% 29.93 in 10.0 mi NNW 12.7 mph 20.7 mph N/A Rain Light Rain
5:15 AM 35.6 °F 25.5 °F 33.8 °F 93% 29.95 in 7.0 mi NNW 17.3 mph 21.9 mph N/A Rain Light Rain
5:35 AM 33.8 °F 22.5 °F 32.0 °F 93% 29.95 in 7.0 mi NNW 19.6 mph 27.6 mph N/A Snow Light Snow
5:55 AM 32.0 °F 20.1 °F 32.0 °F 100% 29.98 in 1.5 mi NW 19.6 mph 26.5 mph N/A Snow Light Snow
6:15 AM 30.2 °F 17.8 °F 30.2 °F 100% 29.99 in 3.0 mi NW 19.6 mph 26.5 mph N/A Snow Light Snow
6:35 AM 28.4 °F 15.1 °F 26.6 °F 93% 30.01 in 1.8 mi NW 20.7 mph 25.3 mph N/A Snow Light Snow
6:55 AM 28.4 °F 15.1 °F 26.6 °F 93% 30.02 in 1.0 mi NNW 20.7 mph - N/A Snow Light Snow
7:15 AM 26.6 °F 13.4 °F 24.8 °F 93% 30.03 in 4.0 mi NNW 18.4 mph 26.5 mph N/A Snow Light Snow
7:35 AM 26.6 °F 15.2 °F 23.0 °F 86% 30.05 in 10.0 mi NNW 13.8 mph 18.4 mph N/A   Overcast
7:55 AM 26.6 °F 13.1 °F 23.0 °F 86% 30.06 in 10.0 mi NNW 19.6 mph 28.8 mph N/A   Overcast
8:15 AM 26.6 °F 14.7 °F 23.0 °F 86% 30.08 in 5.0 mi NNW 15.0 mph 24.2 mph N/A Snow Light Snow
8:35 AM 26.6 °F 13.8 °F 21.2 °F 80% 30.09 in 5.0 mi NNW 17.3 mph 23.0 mph N/A Snow Light Snow
8:55 AM 26.6 °F 13.8 °F 21.2 °F 80% 30.10 in 5.0 mi NNW 17.3 mph 23.0 mph N/A Snow Light Snow
9:15 AM 24.8 °F 11.5 °F 19.4 °F 80% 30.11 in 10.0 mi NNW 17.3 mph 27.6 mph N/A   Overcast
9:35 AM 24.8 °F 10.3 °F 19.4 °F 80% 30.12 in 10.0 mi NNW 20.7 mph 26.5 mph N/A   Overcast
9:55 AM 24.8 °F 10.0 °F 19.4 °F 80% 30.14 in 10.0 mi NNW 21.9 mph 27.6 mph N/A   Overcast
10:15 AM 26.6 °F 15.2 °F 19.4 °F 74% 30.16 in 10.0 mi NNW 13.8 mph 31.1 mph N/A   Overcast
10:35 AM 24.8 °F 11.1 °F 19.4 °F 80% 30.16 in 10.0 mi NNW 18.4 mph 23.0 mph N/A   Overcast
10:55 AM 24.8 °F 10.3 °F 19.4 °F 80% 30.17 in 10.0 mi NW 20.7 mph 27.6 mph N/A   Overcast
11:15 AM 24.8 °F 11.9 °F 19.4 °F 80% 30.17 in 10.0 mi NNW 16.1 mph 23.0 mph N/A   Overcast
11:35 AM 24.8 °F 11.1 °F 17.6 °F 74% 30.17 in 10.0 mi NNW 18.4 mph 27.6 mph N/A   Overcast
11:55 AM 24.8 °F 10.7 °F 17.6 °F 74% 30.17 in 10.0 mi NNW 19.6 mph 25.3 mph N/A   Overcast
12:15 PM 24.8 °F 11.5 °F 17.6 °F 74% 30.17 in 10.0 mi NNW 17.3 mph 23.0 mph N/A   Overcast
12:35 PM 24.8 °F 10.7 °F 19.4 °F 80% 30.18 in 10.0 mi NW 19.6 mph 26.5 mph N/A   Overcast
12:55 PM 24.8 °F 11.5 °F 17.6 °F 74% 30.18 in 10.0 mi NNW 17.3 mph 24.2 mph N/A   Overcast
1:15 PM 24.8 °F 10.3 °F 17.6 °F 74% 30.19 in 10.0 mi NW 20.7 mph 28.8 mph N/A   Overcast
1:35 PM 26.6 °F 13.4 °F 17.6 °F 69% 30.19 in 10.0 mi NNW 18.4 mph 27.6 mph N/A   Overcast
1:55 PM 26.6 °F 12.4 °F 17.6 °F 69% 30.19 in 10.0 mi NNW 21.9 mph 31.1 mph N/A   Overcast
2:15 PM 26.6 °F 14.7 °F 17.6 °F 69% 30.20 in 10.0 mi NNW 15.0 mph 23.0 mph N/A   Overcast
2:35 PM 26.6 °F 12.4 °F 14.0 °F 59% 30.21 in 10.0 mi NNW 21.9 mph 29.9 mph N/A   Mostly Cloudy
2:55 PM 26.6 °F 14.7 °F 15.8 °F 64% 30.22 in 10.0 mi North 15.0 mph 23.0 mph N/A   Mostly Cloudy
3:15 PM 26.6 °F 14.7 °F 14.0 °F 59% 30.23 in 10.0 mi NNW 15.0 mph 25.3 mph N/A   Overcast
3:35 PM 26.6 °F 14.7 °F 15.8 °F 64% 30.24 in 10.0 mi NNW 15.0 mph 19.6 mph N/A   Overcast
3:55 PM 26.6 °F 13.4 °F 14.0 °F 59% 30.26 in 10.0 mi NNW 18.4 mph 29.9 mph N/A   Overcast
4:15 PM 26.6 °F 12.0 °F 14.0 °F 59% 30.27 in 10.0 mi NNW 23.0 mph 27.6 mph N/A   Overcast
4:35 PM 24.8 °F 10.7 °F 14.0 °F 64% 30.29 in 10.0 mi NNW 19.6 mph 26.5 mph N/A   Overcast
4:55 PM 24.8 °F 11.5 °F 14.0 °F 64% 30.29 in 10.0 mi NNW 17.3 mph 23.0 mph N/A   Overcast
5:15 PM 23.0 °F 9.6 °F 14.0 °F 68% 30.31 in 10.0 mi North 16.1 mph 24.2 mph N/A   Overcast
5:35 PM 23.0 °F 10.6 °F 14.0 °F 68% 30.33 in 10.0 mi NNW 13.8 mph - N/A   Overcast
5:55 PM 23.0 °F 8.7 °F 12.2 °F 63% 30.33 in 10.0 mi NNW 18.4 mph 26.5 mph N/A   Mostly Cloudy
6:15 PM 23.0 °F 8.7 °F 12.2 °F 63% 30.34 in 10.0 mi NNW 18.4 mph 24.2 mph N/A   Overcast
6:35 PM 23.0 °F 7.6 °F 12.2 °F 63% 30.34 in 10.0 mi NNW 21.9 mph 25.3 mph N/A   Overcast
6:55 PM 23.0 °F 10.6 °F 14.0 °F 68% 30.35 in 10.0 mi North 13.8 mph - N/A   Overcast
7:15 PM 23.0 °F 9.6 °F 12.2 °F 63% 30.36 in 10.0 mi North 16.1 mph 28.8 mph N/A   Overcast
7:35 PM 23.0 °F 8.0 °F 14.0 °F 68% 30.36 in 10.0 mi North 20.7 mph 26.5 mph N/A   Overcast
7:55 PM 23.0 °F 12.4 °F 14.0 °F 68% 30.37 in 10.0 mi North 10.4 mph 19.6 mph N/A   Overcast
8:15 PM 23.0 °F 11.7 °F 14.0 °F 68% 30.38 in 10.0 mi NNW 11.5 mph - N/A   Overcast
8:35 PM 21.2 °F 11.7 °F 14.0 °F 74% 30.39 in 10.0 mi North 8.1 mph - N/A   Overcast
8:55 PM 21.2 °F 9.5 °F 12.2 °F 68% 30.39 in 10.0 mi North 11.5 mph - N/A   Mostly Cloudy
9:15 PM 21.2 °F 10.1 °F 12.2 °F 68% 30.40 in 10.0 mi North 10.4 mph - N/A   Mostly Cloudy
9:35 PM 21.2 °F 10.9 °F 12.2 °F 68% 30.41 in 10.0 mi North 9.2 mph 19.6 mph N/A   Overcast
9:55 PM 19.4 °F 9.5 °F 12.2 °F 74% 30.42 in 10.0 mi North 8.1 mph - N/A   Overcast
10:15 PM 19.4 °F 8.6 °F 12.2 °F 74% 30.42 in 10.0 mi North 9.2 mph - N/A   Scattered Clouds
10:35 PM 19.4 °F 11.5 °F 12.2 °F 74% 30.42 in 10.0 mi North 5.8 mph - N/A   Clear
10:55 PM 19.4 °F 11.5 °F 12.2 °F 74% 30.42 in 10.0 mi NNW 5.8 mph - N/A   Clear
11:15 PM 19.4 °F 10.4 °F 12.2 °F 74% 30.43 in 10.0 mi NNW 6.9 mph - N/A   Clear
11:35 PM 17.6 °F 12.3 °F 12.2 °F 79% 30.44 in 10.0 mi NNW 3.5 mph - N/A   Mostly Cloudy
11:55 PM 19.4 °F 12.8 °F 12.2 °F 74% 30.44 in 10.0 mi NNW 4.6 mph - N/A   Overcast